Satellite-Ground Cal/Val Region Overpasses Predictions

Prediction of Satellite NPP Overpassing Cal/Val Region: PacNW

Region Location: (Latitude: 10.00, Longitude: 139.50) to (Latitude: 22.70, Longitude: 165.60).

Table of predicted overpasses for the next 14.0 days since TLE Epoch: 2/10/2017
Interval Starting Time Starting Location Ending Time Ending Location
1 02/10/2017 15:43:06 ( 22.68, 149.13) 02/10/2017 15:46:41 ( 10.05, 146.13)
2 02/11/2017 02:52:11 ( 10.02, 156.66) 02/11/2017 02:55:47 ( 22.69, 153.64)
3 02/11/2017 15:24:03 ( 22.68, 153.89) 02/11/2017 15:27:38 ( 10.05, 150.89)
4 02/12/2017 02:33:08 ( 10.01, 161.42) 02/12/2017 02:36:44 ( 22.69, 158.40)
5 02/12/2017 15:05:01 ( 22.68, 158.65) 02/12/2017 15:08:36 ( 10.06, 155.65)
6 02/13/2017 02:14:49 ( 12.54, 165.60) 02/13/2017 02:17:42 ( 22.69, 163.16)
7 02/13/2017 03:55:36 ( 10.02, 140.80) 02/13/2017 03:57:11 ( 15.60, 139.51)
8 02/13/2017 14:45:58 ( 22.68, 163.41) 02/13/2017 14:49:33 ( 10.06, 160.41)
9 02/14/2017 03:36:33 ( 10.02, 145.56) 02/14/2017 03:40:09 ( 22.70, 142.54)
10 02/14/2017 14:29:59 ( 11.94, 165.60) 02/14/2017 14:30:31 ( 10.06, 165.17)
11 02/14/2017 16:08:26 ( 22.67, 142.79) 02/14/2017 16:12:01 ( 10.05, 139.79)
12 02/15/2017 03:17:31 ( 10.02, 150.32) 02/15/2017 03:21:07 ( 22.70, 147.30)
13 02/15/2017 15:49:23 ( 22.67, 147.55) 02/15/2017 15:52:58 ( 10.05, 144.55)
14 02/16/2017 02:58:28 ( 10.02, 155.08) 02/16/2017 03:02:04 ( 22.70, 152.06)
15 02/16/2017 15:30:21 ( 22.67, 152.31) 02/16/2017 15:33:56 ( 10.05, 149.31)
16 02/17/2017 02:39:26 ( 10.02, 159.84) 02/17/2017 02:43:02 ( 22.70, 156.82)
17 02/17/2017 15:11:19 ( 22.67, 157.07) 02/17/2017 15:14:54 ( 10.05, 154.07)
18 02/18/2017 02:20:23 ( 10.02, 164.60) 02/18/2017 02:23:59 ( 22.70, 161.58)
19 02/18/2017 14:52:16 ( 22.67, 161.83) 02/18/2017 14:55:51 ( 10.05, 158.83)
20 02/19/2017 03:42:51 ( 10.03, 143.98) 02/19/2017 03:46:26 ( 22.65, 140.98)
21 02/19/2017 14:34:23 ( 18.63, 165.60) 02/19/2017 14:36:49 ( 10.05, 163.59)
22 02/19/2017 16:14:44 ( 22.66, 141.21) 02/19/2017 16:16:44 ( 15.62, 139.51)
23
